Location: *
(45.1961°N, 1.9694°E)
Time: 04:21:15
(UTC+00:00)

Geosat - Pass Details

Date: 25 August 2019
Orbit: 763 x 766 km, 108.0° (Epoch: 15 September)

Event Time Altitude Azimuth Distance (km) Brightness Sun altitude
Exits shadow 21:22:23 68° 171° (S) 821 3.9 -24.5°
Maximum altitude 21:23:00 83° 241° (WSW) 777 3.9 -24.6°
Drops below altitude 10° 21:28:03 10° 331° (NNW) 2,311 7.5 -25.2°
Sets 21:30:20 0° 332° (NNW) 3,241 8.5 -25.5°
